User: anonymous   Login
Location: Waco, TX
(31.5481°N, 97.1672°W)
Time: 06:15:45
(UTC-06:00)
Language:

PRISM - Orbit

View from above orbital plane
View from above orbital plane
View from above satellite
View from above satellite

Ground track
Ground track

The orbit data is extracted from the following two-line orbital elements,

1 33493U 09002B   18053.53766844  .00001248  00000-0  11644-3 0  9997
2 33493 098.1426 311.1627 0015281 342.2426 017.8267 14.96088435493202
Epoch (UTC): 22 February 2018 12:54:14
Eccentricity: 0.0015281
inclination: 98.1426°
perigee height: 568 km
apogee height: 589 km
right ascension of ascending node: 311.1627°
argument of perigee: 342.2426°
revolutions per day: 14.96088435
mean anomaly at epoch: 17.8267°
orbit number at epoch: 49320

The dashed part of the orbit path shows where the satellite is in the earth's shadow,  

DLR